| time (UTC) | temp C | wind direction | speed KPH | gust KPH | rain 1hr cm | rain 24hr cm | rain mn cm | humidity % | barometer mb |
| 20260503184526 | 14 | 234 | 33.8 | 0.0 | 0.00 | 0.00 | 0.00 | 46 | 985.7 |
| 20260503183534 | 14 | 237 | 33.8 | 0.0 | 0.00 | 0.00 | 0.00 | 46 | 985.7 |
| 20260503181526 | 15 | 233 | 33.8 | 0.0 | 0.00 | 0.00 | 0.00 | 52 | 986.0 |
| 20260503180053 | 14 | 234 | 33.8 | 0.0 | 0.00 | 0.00 | 0.00 | 52 | 986.0 |
| 20260503174524 | 14 | 237 | 33.8 | 0.0 | 0.00 | 0.00 | 0.00 | 48 | 986.4 |
| 20260503173044 | 14 | 234 | 33.8 | 0.0 | 0.00 | 0.00 | 0.00 | 46 | 985.8 |
| 20260503081525 | 1 | 186 | 9.7 | 0.0 | 0.00 | 0.00 | 0.00 | 66 | 986.7 |
| 20260503071525 | 1 | 161 | 6.4 | 0.0 | 0.00 | 0.00 | 0.00 | 66 | 987.0 |
| 20260503054526 | 2 | 185 | 6.4 | 0.0 | 0.00 | 0.00 | 0.00 | 69 | 988.4 |
| 20260503051525 | 2 | 167 | 6.4 | 0.0 | 0.00 | 0.00 | 0.00 | 70 | 988.7 |
| 20260503050052 | 2 | 186 | 6.4 | 0.0 | 0.00 | 0.00 | 0.00 | 70 | 988.7 |
| 20260503044525 | 2 | 186 | 6.4 | 0.0 | 0.00 | 0.00 | 0.00 | 69 | 988.9 |
| 20260503043045 | 2 | 183 | 6.4 | 0.0 | 0.00 | 0.00 | 0.00 | 72 | 988.3 |
| 20260503041526 | 2 | 189 | 6.4 | 0.0 | 0.00 | 0.00 | 0.00 | 72 | 988.3 |
| 20260503040054 | 2 | 195 | 6.4 | 0.0 | 0.00 | 0.00 | 0.00 | 72 | 988.3 |
| 20260503034525 | 2 | 196 | 6.4 | 0.0 | 0.00 | 0.00 | 0.00 | 64 | 989.5 |
| 20260503033046 | 2 | 189 | 6.4 | 0.0 | 0.00 | 0.00 | 0.00 | 66 | 989.6 |
| 20260503031525 | 3 | 189 | 6.4 | 0.0 | 0.00 | 0.00 | 0.00 | 66 | 989.6 |
| 20260503030052 | 3 | 192 | 6.4 | 0.0 | 0.00 | 0.00 | 0.00 | 66 | 989.6 |
| 20260503024525 | 3 | 201 | 4.8 | 0.0 | 0.00 | 0.00 | 0.00 | 61 | 990.4 |
| 20260503023045 | 3 | 218 | 4.8 | 0.0 | 0.00 | 0.00 | 0.00 | 66 | 990.1 |
| 20260503021525 | 3 | 229 | 8.0 | 0.0 | 0.00 | 0.00 | 0.00 | 66 | 990.0 |
| 20260503020052 | 3 | 234 | 6.4 | 0.0 | 0.00 | 0.00 | 0.00 | 66 | 990.0 |
| 20260503014525 | 4 | 241 | 8.0 | 0.0 | 0.00 | 0.00 | 0.00 | 61 | 989.5 |
| 20260503013043 | 4 | 245 | 8.0 | 0.0 | 0.00 | 0.00 | 0.00 | 61 | 989.5 |
| 20260503011525 | 5 | 235 | 8.0 | 0.0 | 0.00 | 0.00 | 0.00 | 61 | 989.5 |
| 20260503010050 | 5 | 238 | 8.0 | 0.0 | 0.00 | 0.00 | 0.00 | 61 | 989.5 |
| 20260503004525 | 5 | 240 | 8.0 | 0.0 | 0.00 | 0.00 | 0.00 | 50 | 990.2 |
| 20260503003039 | 6 | 234 | 6.4 | 0.0 | 0.00 | 0.00 | 0.00 | 50 | 990.4 |
| 20260503001525 | 6 | 239 | 4.8 | 0.0 | 0.00 | 0.00 | 0.00 | 50 | 990.4 |
| 20260503000050 | 7 | 257 | 4.8 | 0.0 | 0.00 | 0.00 | 0.00 | 50 | 990.4 |
| 20260502234526 | 7 | 277 | 8.0 | 0.0 | 0.00 | 0.00 | 0.00 | 40 | 990.2 |
| 20260502233038 | 7 | 274 | 9.7 | 0.0 | 0.00 | 0.00 | 0.00 | 41 | 990.3 |
| 20260502231526 | 7 | 275 | 12.9 | 0.0 | 0.00 | 0.00 | 0.00 | 41 | 990.3 |
| 20260502230052 | 7 | 276 | 14.5 | 0.0 | 0.00 | 0.00 | 0.00 | 41 | 990.3 |
| 20260502224525 | 8 | 275 | 16.1 | 0.0 | 0.00 | 0.00 | 0.00 | 42 | 990.7 |
| 20260502223044 | 8 | 276 | 16.1 | 0.0 | 0.00 | 0.00 | 0.00 | 40 | 991.4 |
| 20260502221526 | 8 | 276 | 17.7 | 0.0 | 0.00 | 0.00 | 0.00 | 40 | 991.4 |
| 20260502220050 | 8 | 275 | 17.7 | 0.0 | 0.00 | 0.00 | 0.00 | 40 | 991.4 |
| 20260502214526 | 8 | 277 | 19.3 | 0.0 | 0.00 | 0.00 | 0.00 | 42 | 991.5 |
| 20260502213044 | 8 | 270 | 16.1 | 0.0 | 0.00 | 0.00 | 0.00 | 43 | 991.2 |
| 20260502211526 | 8 | 266 | 16.1 | 0.0 | 0.00 | 0.00 | 0.00 | 43 | 991.1 |
| 20260502210054 | 8 | 267 | 17.7 | 0.0 | 0.00 | 0.00 | 0.00 | 43 | 991.1 |
| 20260502204525 | 8 | 263 | 17.7 | 0.0 | 0.00 | 0.00 | 0.00 | 38 | 991.6 |
| 20260502203043 | 8 | 264 | 17.7 | 0.0 | 0.00 | 0.00 | 0.00 | 37 | 992.0 |
| 20260502201525 | 8 | 269 | 17.7 | 0.0 | 0.00 | 0.00 | 0.00 | 37 | 992.0 |
| 20260502200050 | 8 | 274 | 17.7 | 0.0 | 0.00 | 0.00 | 0.00 | 37 | 992.0 |
| 20260502194525 | 8 | 279 | 17.7 | 0.0 | 0.00 | 0.00 | 0.00 | 39 | 992.3 |
| 20260502193039 | 8 | 279 | 17.7 | 0.0 | 0.00 | 0.00 | 0.00 | 39 | 992.3 |
| 20260502191526 | 8 | 276 | 19.3 | 0.0 | 0.00 | 0.00 | 0.00 | 39 | 992.3 |
| 20260502190051 | 8 | 275 | 17.7 | 0.0 | 0.00 | 0.00 | 0.00 | 39 | 992.3 |